^^
Station Historical Data
 
Daily Summary for April 16, 2014 Units:  English    Metric   Both
« Previous Day
Next Day »
Daily Weekly Monthly Yearly Custom
  Current: High: Low: Average:
Temperature: 35.8 °F 46.7 °F 21.7 °F 33.8 °F
Dew Point: 12.1 °F 18.8 °F 0.3 °F 12.4 °F
Humidity: 37% 74% 15% 45%
Wind Speed: 2.6mph 7.5mph 0.0mph 3.7mph
Wind Gust: 4.5mph 11.4mph - -
WindENE - - East
Pressure: 30.40 in 30.45 in 30.15 in -
Precipitation: 0.01 in      
Historical Graphs
 
 
Tabular Data for April 16, 2014
Time Temperature Dew Point Pressure Wind Wind Speed Wind Gust Humidity Rainfall Rate (Hourly)
00:01 25.1 °F 15.8 °F 30.15 in Calm     67% 0.00 in
00:03 25.1 °F 16.1 °F 30.15 in Calm     68% 0.00 in
00:08 25.1 °F 16.1 °F 30.16 in Calm     68% 0.00 in
00:13 25.3 °F 16.3 °F 30.15 in Calm     68% 0.00 in
00:18 25.3 °F 16.6 °F 30.16 in Calm     69% 0.00 in
00:23 25.3 °F 16.6 °F 30.16 in Calm     69% 0.00 in
00:28 25.3 °F 16.6 °F 30.15 in Calm     69% 0.00 in
00:33 25.5 °F 16.8 °F 30.16 in Calm     69% 0.00 in
00:38 25.5 °F 16.5 °F 30.16 in Calm     68% 0.00 in
00:43 25.7 °F 16.6 °F 30.16 in Calm     68% 0.00 in
00:48 25.7 °F 16.6 °F 30.16 in Calm     68% 0.00 in
00:53 25.7 °F 16.6 °F 30.16 in Calm     68% 0.00 in
00:58 25.7 °F 17.0 °F 30.17 in Calm     69% 0.00 in
01:03 25.5 °F 16.8 °F 30.17 in Calm     69% 0.00 in
01:08 25.5 °F 17.1 °F 30.17 in Calm     70% 0.00 in
01:13 25.5 °F 16.8 °F 30.17 in Calm     69% 0.00 in
01:18 25.5 °F 16.5 °F 30.17 in Calm     68% 0.00 in
01:23 25.7 °F 16.6 °F 30.17 in Calm     68% 0.00 in
01:28 25.7 °F 16.6 °F 30.17 in Calm     68% 0.00 in
01:33 25.7 °F 16.6 °F 30.17 in Calm     68% 0.00 in
01:38 25.9 °F 16.8 °F 30.17 in Calm     68% 0.00 in
01:43 25.9 °F 16.8 °F 30.17 in Calm     68% 0.00 in
01:48 25.7 °F 17.0 °F 30.18 in Calm     69% 0.00 in
01:53 25.7 °F 17.0 °F 30.18 in Calm     69% 0.00 in
01:58 25.9 °F 17.5 °F 30.18 in Calm     70% 0.00 in
02:03 25.9 °F 17.5 °F 30.18 in Calm     70% 0.00 in
02:08 26.0 °F 17.6 °F 30.18 in Calm     70% 0.00 in
02:13 26.0 °F 18.0 °F 30.18 in Calm     71% 0.00 in
02:18 25.9 °F 17.8 °F 30.19 in Calm     71% 0.00 in
02:23 25.5 °F 17.4 °F 30.18 in Calm     71% 0.00 in
02:28 25.7 °F 17.9 °F 30.18 in Calm     72% 0.00 in
02:33 25.9 °F 18.4 °F 30.19 in Calm     73% 0.00 in
02:39 25.9 °F 18.4 °F 30.19 in Calm     73% 0.00 in
02:44 26.0 °F 18.6 °F 30.19 in Calm     73% 0.00 in
02:49 26.2 °F 18.8 °F 30.19 in Calm     73% 0.00 in
02:54 26.0 °F 18.6 °F 30.20 in Calm     73% 0.00 in
02:59 25.9 °F 18.1 °F 30.19 in Calm     72% 0.00 in
03:04 25.7 °F 17.9 °F 30.20 in Calm     72% 0.00 in
03:09 25.5 °F 17.4 °F 30.20 in Calm     71% 0.00 in
03:14 25.7 °F 17.6 °F 30.21 in Calm     71% 0.00 in
03:19 25.7 °F 17.6 °F 30.21 in Calm     71% 0.00 in
03:24 25.9 °F 17.8 °F 30.21 in Calm     71% 0.00 in
03:29 25.9 °F 17.5 °F 30.21 in Calm     70% 0.00 in
03:34 25.7 °F 17.0 °F 30.22 in Calm     69% 0.00 in
03:39 25.7 °F 17.0 °F 30.22 in Calm     69% 0.00 in
03:44 25.5 °F 16.1 °F 30.22 in Calm     67% 0.00 in
03:49 25.3 °F 15.9 °F 30.22 in Calm     67% 0.00 in
03:54 25.3 °F 15.9 °F 30.23 in Calm     67% 0.00 in
03:59 25.3 °F 15.9 °F 30.23 in Calm     67% 0.00 in
04:04 25.3 °F 15.9 °F 30.24 in Calm     67% 0.00 in
04:09 25.3 °F 15.2 °F 30.24 in Calm     65% 0.00 in
04:14 25.1 °F 15.4 °F 30.25 in Calm     66% 0.00 in
04:19 24.8 °F 14.4 °F 30.25 in Calm     64% 0.00 in
04:24 24.6 °F 14.2 °F 30.25 in Calm     64% 0.00 in
04:29 24.6 °F 14.6 °F 30.26 in Calm     65% 0.00 in
04:34 24.6 °F 14.6 °F 30.26 in Calm     65% 0.00 in
04:39 24.6 °F 14.9 °F 30.26 in Calm     66% 0.00 in
04:44 24.2 °F 14.6 °F 30.26 in Calm     66% 0.00 in
04:49 24.1 °F 14.0 °F 30.27 in Calm     65% 0.00 in
04:54 23.9 °F 14.2 °F 30.27 in Calm     66% 0.00 in
04:59 23.7 °F 14.0 °F 30.28 in Calm     66% 0.00 in
05:04 23.7 °F 14.0 °F 30.28 in Calm     66% 0.00 in
05:09 23.3 °F 14.4 °F 30.28 in Calm     68% 0.00 in
05:14 23.2 °F 14.2 °F 30.28 in Calm     68% 0.00 in
05:19 23.0 °F 14.0 °F 30.29 in Calm     68% 0.00 in
05:24 23.0 °F 14.4 °F 30.29 in Calm     69% 0.00 in
05:29 23.0 °F 14.0 °F 30.29 in Calm     68% 0.00 in
05:34 23.0 °F 14.0 °F 30.30 in Calm     68% 0.00 in
05:39 22.8 °F 14.2 °F 30.30 in Calm     69% 0.00 in
05:44 22.8 °F 14.2 °F 30.30 in Calm     69% 0.00 in
05:49 22.6 °F 14.4 °F 30.30 in Calm     70% 0.00 in
05:54 22.4 °F 14.2 °F 30.31 in Calm     70% 0.00 in
05:59 22.3 °F 14.0 °F 30.31 in Calm     70% 0.00 in
06:04 22.3 °F 14.0 °F 30.31 in Calm     70% 0.00 in
06:09 22.1 °F 14.2 °F 30.31 in Calm     71% 0.00 in
06:14 22.1 °F 14.2 °F 30.32 in Calm     71% 0.00 in
06:19 21.9 °F 14.0 °F 30.32 in Calm     71% 0.00 in
06:24 21.9 °F 14.0 °F 30.32 in Calm     71% 0.00 in
06:29 21.9 °F 14.0 °F 30.32 in Calm     71% 0.00 in
06:34 21.9 °F 14.3 °F 30.33 in Calm     72% 0.00 in
06:40 21.9 °F 14.3 °F 30.33 in Calm     72% 0.00 in
06:45 21.7 °F 14.1 °F 30.33 in Calm     72% 0.00 in
06:50 21.7 °F 14.1 °F 30.33 in Calm     72% 0.00 in
06:55 21.7 °F 14.4 °F 30.34 in Calm     73% 0.00 in
07:00 21.7 °F 14.4 °F 30.34 in Calm     73% 0.00 in
07:05 21.7 °F 14.4 °F 30.34 in Calm     73% 0.00 in
07:10 21.9 °F 14.6 °F 30.35 in Calm     73% 0.00 in
07:15 22.1 °F 15.1 °F 30.35 in Calm     74% 0.00 in
07:20 22.1 °F 15.1 °F 30.36 in Calm     74% 0.00 in
07:25 22.3 °F 15.3 °F 30.36 in Calm     74% 0.00 in
07:30 22.6 °F 15.3 °F 30.37 in Calm     73% 0.00 in
07:35 23.0 °F 15.7 °F 30.37 in Calm     73% 0.00 in
07:40 23.2 °F 15.2 °F 30.37 in Calm     71% 0.00 in
07:45 23.3 °F 15.4 °F 30.38 in Calm     71% 0.00 in
07:50 23.9 °F 15.6 °F 30.38 in Calm     70% 0.00 in
07:55 24.1 °F 15.4 °F 30.38 in SE 0.1 mph 0.7 mph 69% 0.00 in
08:00 24.4 °F 15.4 °F 30.39 in SE 0.1 mph 0.7 mph 68% 0.00 in
08:05 24.4 °F 15.4 °F 30.39 in Calm     68% 0.00 in
08:10 25.3 °F 15.6 °F 30.39 in Calm     66% 0.00 in
08:15 25.9 °F 15.8 °F 30.40 in Calm     65% 0.00 in
08:20 26.0 °F 15.6 °F 30.40 in Calm     64% 0.00 in
08:25 26.4 °F 15.6 °F 30.40 in Calm     63% 0.00 in
08:30 27.1 °F 15.9 °F 30.41 in Calm     62% 0.00 in
08:35 27.3 °F 14.9 °F 30.41 in Calm     59% 0.00 in
08:40 27.8 °F 14.6 °F 30.42 in Calm     57% 0.00 in
08:45 27.8 °F 14.2 °F 30.42 in Calm     56% 0.00 in
08:50 27.8 °F 13.4 °F 30.42 in Calm     54% 0.00 in
08:55 28.4 °F 14.3 °F 30.43 in Calm     55% 0.00 in
09:00 28.9 °F 14.4 °F 30.43 in Calm     54% 0.00 in
09:05 29.8 °F 14.8 °F 30.43 in Calm     53% 0.00 in
09:10 30.2 °F 14.3 °F 30.43 in Calm     51% 0.00 in
09:15 30.4 °F 14.4 °F 30.43 in Calm     51% 0.00 in
09:20 30.9 °F 14.5 °F 30.43 in Calm     50% 0.00 in
09:25 30.5 °F 12.7 °F 30.43 in Calm     47% 0.00 in
09:30 30.4 °F 13.1 °F 30.43 in Calm     48% 0.00 in
09:35 30.9 °F 12.6 °F 30.43 in Calm     46% 0.00 in
09:40 30.9 °F 12.6 °F 30.43 in Calm     46% 0.00 in
09:45 30.9 °F 11.6 °F 30.44 in Calm     44% 0.00 in
09:51 31.8 °F 13.4 °F 30.44 in Calm     46% 0.00 in
09:56 32.3 °F 12.9 °F 30.44 in Calm     44% 0.00 in
10:01 32.7 °F 12.2 °F 30.44 in Calm     42% 0.00 in
10:06 32.7 °F 10.5 °F 30.44 in Calm     39% 0.00 in
10:11 32.9 °F 12.3 °F 30.44 in North 2.0 mph 7.6 mph 42% 0.00 in
10:16 32.5 °F 9.8 °F 30.44 in North 4.5 mph 8.3 mph 38% 0.00 in
10:21 32.9 °F 12.9 °F 30.44 in NE 5.7 mph 8.3 mph 43% 0.00 in
10:26 33.4 °F 12.8 °F 30.44 in East 5.5 mph 8.3 mph 42% 0.00 in
10:31 34.0 °F 13.3 °F 30.44 in East 4.4 mph 6.0 mph 42% 0.00 in
10:36 34.3 °F 12.5 °F 30.45 in ENE 4.7 mph 8.3 mph 40% 0.00 in
10:41 34.7 °F 12.9 °F 30.45 in ENE 5.1 mph 8.3 mph 40% 0.00 in
10:46 35.0 °F 13.2 °F 30.45 in East 5.7 mph 11.4 mph 40% 0.00 in
10:51 35.2 °F 11.0 °F 30.44 in ENE 5.7 mph 11.4 mph 36% 0.00 in
10:56 35.0 °F 10.8 °F 30.44 in NNE 4.0 mph 9.2 mph 36% 0.00 in
11:01 35.4 °F 11.1 °F 30.45 in NNE 4.7 mph 9.2 mph 36% 0.00 in
11:06 35.8 °F 11.5 °F 30.44 in NNE 5.0 mph 9.2 mph 36% 0.00 in
11:11 35.9 °F 11.6 °F 30.44 in NE 4.5 mph 7.6 mph 36% 0.00 in
11:16 36.3 °F 11.9 °F 30.44 in NE 6.1 mph 9.2 mph 36% 0.00 in
11:21 36.5 °F 11.5 °F 30.44 in NE 7.1 mph 9.8 mph 35% 0.00 in
11:26 37.0 °F 12.6 °F 30.45 in NE 6.7 mph 9.8 mph 36% 0.00 in
11:31 35.4 °F 7.8 °F 30.45 in NNE 6.0 mph 8.3 mph 31% 0.00 in
11:36 36.1 °F 11.8 °F 30.45 in NNE 6.0 mph 10.7 mph 36% 0.00 in
11:41 37.0 °F 11.3 °F 30.45 in ENE 6.6 mph 10.7 mph 34% 0.00 in
11:46 37.4 °F 10.9 °F 30.45 in ENE 5.5 mph 10.7 mph 33% 0.00 in
11:51 37.6 °F 11.8 °F 30.45 in East 4.7 mph 8.3 mph 34% 0.00 in
11:56 37.9 °F 10.0 °F 30.45 in ESE 6.5 mph 9.2 mph 31% 0.00 in
12:01 38.3 °F 12.4 °F 30.44 in ESE 7.5 mph 9.8 mph 34% 0.01 in
12:06 38.6 °F 11.4 °F 30.44 in East 6.2 mph 9.8 mph 32% 0.01 in
12:11 38.5 °F 9.0 °F 30.44 in East 4.0 mph 9.2 mph 29% 0.01 in
12:16 38.6 °F 12.1 °F 30.45 in East 3.3 mph 6.0 mph 33% 0.01 in
12:21 39.2 °F 11.8 °F 30.45 in East 4.9 mph 10.7 mph 32% 0.01 in
12:26 39.7 °F 11.6 °F 30.44 in East 6.3 mph 10.7 mph 31% 0.01 in
12:31 39.9 °F 9.5 °F 30.44 in East 5.8 mph 9.2 mph 28% 0.01 in
12:36 39.4 °F 10.5 °F 30.44 in SE 5.2 mph 7.6 mph 30% 0.01 in
12:41 39.9 °F 8.7 °F 30.44 in East 5.2 mph 9.2 mph 27% 0.01 in
12:46 39.7 °F 10.1 °F 30.44 in North 5.6 mph 9.2 mph 29% 0.01 in
12:51 39.9 °F 12.5 °F 30.44 in NNE 5.9 mph 8.3 mph 32% 0.01 in
12:56 39.7 °F 10.1 °F 30.44 in NNE 5.5 mph 8.3 mph 29% 0.01 in
13:01 39.2 °F 7.2 °F 30.44 in NW 4.0 mph 6.9 mph 26% 0.00 in
13:06 39.2 °F 7.2 °F 30.43 in West 3.0 mph 3.8 mph 26% 0.00 in
13:11 39.5 °F 11.4 °F 30.43 in West 3.9 mph 10.7 mph 31% 0.00 in
13:16 39.4 °F 7.4 °F 30.43 in NW 4.8 mph 10.7 mph 26% 0.00 in
13:22 39.2 °F 8.9 °F 30.43 in NNE 4.8 mph 6.0 mph 28% 0.00 in
13:27 39.7 °F 10.1 °F 30.43 in East 5.1 mph 8.3 mph 29% 0.00 in
13:32 39.7 °F 5.9 °F 30.43 in SE 5.5 mph 8.3 mph 24% 0.00 in
13:37 39.7 °F 10.1 °F 30.44 in SSE 6.0 mph 8.3 mph 29% 0.00 in
13:42 40.4 °F 12.2 °F 30.44 in SE 6.8 mph 9.2 mph 31% 0.00 in
13:47 40.8 °F 11.0 °F 30.43 in SE 6.5 mph 9.2 mph 29% 0.00 in
13:52 41.2 °F 13.6 °F 30.43 in East 6.4 mph 9.8 mph 32% 0.00 in
13:57 41.7 °F 14.0 °F 30.43 in ENE 6.0 mph 9.8 mph 32% 0.00 in
14:02 42.2 °F 13.8 °F 30.43 in SSE 6.3 mph 10.7 mph 31% 0.00 in
14:07 42.2 °F 13.8 °F 30.43 in SSW 7.5 mph 10.7 mph 31% 0.00 in
14:12 42.8 °F 9.4 °F 30.44 in WSW 7.1 mph 9.8 mph 25% 0.00 in
14:17 42.8 °F 10.3 °F 30.43 in North 5.3 mph 9.8 mph 26% 0.00 in
14:22 42.6 °F 7.4 °F 30.43 in North 5.1 mph 9.2 mph 23% 0.00 in
14:27 42.2 °F 11.5 °F 30.43 in NNE 5.4 mph 8.3 mph 28% 0.00 in
14:32 43.0 °F 13.7 °F 30.43 in NE 4.5 mph 7.6 mph 30% 0.00 in
14:37 43.9 °F 13.7 °F 30.43 in ENE 4.1 mph 7.6 mph 29% 0.00 in
14:42 44.4 °F 11.7 °F 30.43 in East 4.4 mph 6.0 mph 26% 0.00 in
14:47 44.8 °F 13.7 °F 30.42 in ENE 4.9 mph 6.9 mph 28% 0.00 in
14:52 44.0 °F 3.3 °F 30.42 in SE 5.1 mph 6.9 mph 18% 0.00 in
14:57 42.1 °F 1.7 °F 30.42 in South 5.3 mph 6.9 mph 18% 0.00 in
15:02 41.3 °F 6.4 °F 30.42 in SW 4.5 mph 6.0 mph 23% 0.00 in
15:07 41.3 °F 6.4 °F 30.42 in WNW 3.8 mph 4.5 mph 23% 0.00 in
15:12 43.7 °F 12.7 °F 30.42 in NNE 4.7 mph 9.8 mph 28% 0.00 in
15:17 44.8 °F 12.0 °F 30.42 in ENE 5.3 mph 9.8 mph 26% 0.00 in
15:22 43.3 °F 6.0 °F 30.42 in NNW 4.3 mph 6.0 mph 21% 0.00 in
15:27 42.6 °F 7.4 °F 30.42 in West 3.8 mph 5.4 mph 23% 0.00 in
15:32 43.5 °F 10.0 °F 30.41 in ENE 3.4 mph 5.4 mph 25% 0.00 in
15:37 44.2 °F 6.8 °F 30.41 in SE 3.7 mph 5.4 mph 21% 0.00 in
15:42 43.9 °F 8.5 °F 30.41 in South 4.2 mph 6.9 mph 23% 0.00 in
15:47 44.4 °F 11.7 °F 30.41 in SSW 3.6 mph 6.9 mph 26% 0.00 in
15:52 45.3 °F 11.6 °F 30.41 in SE 4.0 mph 8.3 mph 25% 0.00 in
15:57 46.0 °F 12.2 °F 30.41 in East 5.0 mph 8.3 mph 25% 0.00 in
16:02 46.2 °F 12.3 °F 30.41 in NE 4.7 mph 7.6 mph 25% 0.00 in
16:08 46.7 °F 9.9 °F 30.40 in NW 4.0 mph 5.4 mph 22% 0.00 in
16:12 46.4 °F 8.6 °F 30.40 in NW 4.1 mph 6.0 mph 21% 0.00 in
16:18 46.4 °F 9.6 °F 30.40 in ENE 5.7 mph 9.8 mph 22% 0.00 in
16:23 46.4 °F 6.4 °F 30.40 in NNE 6.3 mph 9.8 mph 19% 0.00 in
16:28 45.8 °F 4.8 °F 30.40 in North 4.7 mph 7.6 mph 18% 0.00 in
16:33 46.4 °F 10.6 °F 30.40 in North 4.5 mph 6.9 mph 23% 0.00 in
16:38 46.7 °F 7.8 °F 30.40 in NNE 5.1 mph 6.9 mph 20% 0.00 in
16:43 45.5 °F 3.2 °F 30.40 in WNW 5.2 mph 6.9 mph 17% 0.00 in
16:48 44.9 °F 6.3 °F 30.40 in NW 4.2 mph 6.0 mph 20% 0.00 in
16:53 46.0 °F 8.3 °F 30.40 in North 2.6 mph 5.4 mph 21% 0.00 in
16:58 45.8 °F 6.0 °F 30.40 in East 3.6 mph 8.3 mph 19% 0.00 in
17:03 45.3 °F 1.8 °F 30.40 in SSE 5.3 mph 8.3 mph 16% 0.00 in
17:08 45.1 °F 7.5 °F 30.40 in SSE 5.1 mph 6.0 mph 21% 0.00 in
17:13 45.1 °F 0.3 °F 30.40 in ESE 5.3 mph 9.8 mph 15% 0.00 in
17:18 44.0 °F 2.1 °F 30.40 in SSE 5.9 mph 9.8 mph 17% 0.00 in
17:23 43.5 °F 1.6 °F 30.40 in South 5.9 mph 8.3 mph 17% 0.00 in
17:28 43.3 °F 5.0 °F 30.40 in SSW 4.8 mph 8.3 mph 20% 0.00 in
17:33 43.5 °F 4.0 °F 30.40 in SSW 3.2 mph 4.5 mph 19% 0.00 in
17:38 43.9 °F 6.5 °F 30.40 in SE 3.5 mph 6.0 mph 21% 0.00 in
17:43 44.4 °F 5.9 °F 30.40 in SE 5.1 mph 8.3 mph 20% 0.00 in
17:48 44.4 °F 6.9 °F 30.40 in SE 4.8 mph 8.3 mph 21% 0.00 in
17:53 44.0 °F 2.1 °F 30.40 in SSE 4.9 mph 9.2 mph 17% 0.00 in
17:58 43.5 °F 2.8 °F 30.40 in SSE 6.1 mph 9.2 mph 18% 0.00 in
18:03 43.3 °F 2.7 °F 30.40 in SSE 5.1 mph 7.6 mph 18% 0.00 in
18:08 43.1 °F 4.8 °F 30.40 in ESE 4.4 mph 6.9 mph 20% 0.00 in
18:13 43.3 °F 6.0 °F 30.40 in NE 3.7 mph 6.9 mph 21% 0.00 in
18:18 43.3 °F 5.0 °F 30.40 in NE 3.3 mph 6.0 mph 20% 0.00 in
18:23 43.1 °F 5.9 °F 30.40 in ENE 4.1 mph 6.0 mph 21% 0.00 in
18:28 43.0 °F 5.7 °F 30.40 in East 4.9 mph 8.3 mph 21% 0.00 in
18:33 43.0 °F 6.8 °F 30.40 in East 4.9 mph 8.3 mph 22% 0.00 in
18:38 42.8 °F 4.5 °F 30.40 in ENE 3.9 mph 6.0 mph 20% 0.00 in
18:43 43.0 °F 5.7 °F 30.39 in NE 3.1 mph 6.0 mph 21% 0.00 in
18:48 42.8 °F 4.5 °F 30.39 in ENE 2.1 mph 4.5 mph 20% 0.00 in
18:53 42.8 °F 6.6 °F 30.40 in East 2.0 mph 3.8 mph 22% 0.00 in
18:58 42.8 °F 5.6 °F 30.39 in ENE 2.6 mph 4.5 mph 21% 0.00 in
19:03 42.6 °F 6.5 °F 30.38 in ENE 3.1 mph 5.4 mph 22% 0.00 in
19:08 42.4 °F 5.3 °F 30.39 in NE 2.9 mph 5.4 mph 21% 0.00 in
19:13 42.2 °F 6.2 °F 30.39 in ENE 3.0 mph 5.4 mph 22% 0.00 in
19:18 42.1 °F 7.0 °F 30.39 in ENE 2.6 mph 4.5 mph 23% 0.00 in
19:23 42.1 °F 7.9 °F 30.39 in ENE 2.1 mph 4.5 mph 24% 0.00 in
19:28 41.9 °F 7.8 °F 30.39 in East 2.6 mph 5.4 mph 24% 0.00 in
19:33 41.7 °F 9.4 °F 30.38 in East 1.9 mph 5.4 mph 26% 0.00 in
19:38 41.5 °F 8.4 °F 30.39 in NE 1.2 mph 2.2 mph 25% 0.00 in
19:43 41.2 °F 8.9 °F 30.38 in NE 1.3 mph 2.2 mph 26% 0.00 in
19:48 41.2 °F 8.9 °F 30.39 in NE 1.7 mph 2.2 mph 26% 0.00 in
19:53 40.8 °F 10.3 °F 30.39 in NE 1.4 mph 2.2 mph 28% 0.00 in
19:58 40.6 °F 10.9 °F 30.39 in NNE 1.1 mph 1.6 mph 29% 0.00 in
20:03 40.4 °F 11.5 °F 30.39 in North 0.9 mph 1.6 mph 30% 0.00 in
20:08 40.3 °F 12.1 °F 30.39 in North 0.7 mph 1.6 mph 31% 0.00 in
20:13 39.9 °F 12.5 °F 30.39 in North 0.9 mph 1.6 mph 32% 0.00 in
20:18 39.9 °F 12.5 °F 30.39 in North 1.2 mph 1.6 mph 32% 0.00 in
20:23 39.4 °F 12.7 °F 30.39 in North 1.5 mph 1.6 mph 33% 0.00 in
20:28 39.2 °F 12.5 °F 30.39 in North 1.3 mph 1.6 mph 33% 0.00 in
20:33 39.0 °F 13.0 °F 30.40 in North 1.0 mph 1.6 mph 34% 0.00 in
20:38 38.8 °F 14.2 °F 30.40 in North 0.9 mph 1.6 mph 36% 0.00 in
20:43 38.5 °F 13.9 °F 30.40 in North 1.2 mph 1.6 mph 36% 0.00 in
20:48 38.3 °F 13.7 °F 30.40 in North 1.5 mph 1.6 mph 36% 0.00 in
20:53 38.1 °F 13.5 °F 30.40 in North 1.2 mph 1.6 mph 36% 0.00 in
20:58 37.9 °F 14.0 °F 30.40 in North 0.6 mph 1.6 mph 37% 0.00 in
21:03 37.7 °F 15.0 °F 30.40 in NNE 0.6 mph 1.6 mph 39% 0.00 in
21:08 37.6 °F 14.9 °F 30.40 in NNE 0.9 mph 1.6 mph 39% 0.00 in
21:13 37.4 °F 14.7 °F 30.40 in NNE 0.8 mph 1.6 mph 39% 0.00 in
21:18 37.2 °F 15.7 °F 30.40 in NE 0.6 mph 1.6 mph 41% 0.00 in
21:24 37.0 °F 15.5 °F 30.40 in NNE 0.8 mph 1.6 mph 41% 0.00 in
21:29 36.8 °F 14.8 °F 30.40 in NNE 0.8 mph 2.2 mph 40% 0.00 in
21:34 36.7 °F 14.6 °F 30.40 in ENE 0.5 mph 2.2 mph 40% 0.00 in
21:39 36.7 °F 14.6 °F 30.40 in ENE 0.8 mph 2.2 mph 40% 0.00 in
21:44 36.5 °F 13.9 °F 30.40 in NE 1.4 mph 3.1 mph 39% 0.00 in
21:49 36.5 °F 13.9 °F 30.40 in NE 1.6 mph 3.1 mph 39% 0.00 in
21:54 36.5 °F 13.9 °F 30.41 in NE 1.1 mph 3.1 mph 39% 0.00 in
21:59 36.5 °F 15.0 °F 30.40 in NNE 0.8 mph 2.2 mph 41% 0.00 in
22:04 36.3 °F 14.9 °F 30.40 in NE 0.8 mph 2.2 mph 41% 0.00 in
22:09 36.3 °F 14.9 °F 30.41 in NE 0.8 mph 1.6 mph 41% 0.00 in
22:14 36.3 °F 14.3 °F 30.40 in NE 1.4 mph 2.2 mph 40% 0.00 in
22:19 36.5 °F 13.9 °F 30.41 in ENE 2.0 mph 3.1 mph 39% 0.00 in
22:24 36.5 °F 13.3 °F 30.41 in ENE 1.9 mph 3.1 mph 38% 0.00 in
22:29 36.3 °F 13.2 °F 30.41 in NE 1.3 mph 2.2 mph 38% 0.00 in
22:34 36.3 °F 13.2 °F 30.41 in ENE 1.6 mph 2.2 mph 38% 0.00 in
22:39 36.3 °F 13.2 °F 30.41 in ENE 2.0 mph 3.1 mph 38% 0.00 in
22:44 36.3 °F 13.7 °F 30.41 in NE 1.8 mph 3.1 mph 39% 0.00 in
22:49 36.1 °F 13.6 °F 30.41 in ENE 1.6 mph 3.1 mph 39% 0.00 in
22:54 36.1 °F 13.6 °F 30.41 in ENE 1.5 mph 3.1 mph 39% 0.00 in
22:59 36.1 °F 12.4 °F 30.41 in ENE 1.9 mph 3.8 mph 37% 0.00 in
23:04 36.1 °F 12.4 °F 30.41 in East 3.8 mph 5.4 mph 37% 0.00 in
23:09 36.1 °F 13.0 °F 30.41 in East 4.6 mph 5.4 mph 38% 0.00 in
23:14 36.1 °F 13.0 °F 30.41 in ENE 3.0 mph 5.4 mph 38% 0.00 in
23:19 35.9 °F 12.2 °F 30.40 in NE 2.5 mph 6.0 mph 37% 0.00 in
23:24 35.9 °F 12.2 °F 30.41 in ENE 3.1 mph 6.0 mph 37% 0.00 in
23:29 35.9 °F 12.2 °F 30.40 in ENE 3.3 mph 5.4 mph 37% 0.00 in
23:34 35.9 °F 12.2 °F 30.41 in ENE 3.1 mph 7.6 mph 37% 0.00 in
23:39 35.9 °F 12.2 °F 30.40 in ENE 2.9 mph 7.6 mph 37% 0.00 in
23:44 35.8 °F 12.1 °F 30.40 in ENE 2.6 mph 4.5 mph 37% 0.00 in
Export, Pennsylvania, USA
Compliments of Weather Underground